Погода в Новом

Россия / Томская область     57°06′31″N   86°11′45″E
темп.,
°C
ветер,
м/с
пор.,
м/с
влажн.,
%
обл.,
%
осадки,
мм/ч
давл.,
гПа
погр.,
м
18 мая, вт
вт1801:00+10юв2381100 0.1 101066
04:00+9ююв3691100 0.0 100797
07:00+10ююв3997100 6.6 1002315
10:00+10ссв5698100 12.1 999270
13:00+9ссв799097 16.4 1003480
16:00+9ссв5787100 0.1 1007699
19:00+9ссв358076 0.1 1009679
22:00+7с1187100 0.0 101010
19 мая, ср
ср1901:00+7ссв3789100 0.0 1009187
04:00+5св3875100 0.0 1010183
07:00+4ссв49660 0.0 1010300
10:00+8ссв674534 0.0 10101126
13:00+10с674096 0.0 10102088
16:00+10с7836100 0.0 10102525
19:00+8с674482 0.0 10112354
22:00+4ссз39565 0.0 1012209
20 мая, чт
чт2001:00+1ссз39655 0.0 1013202
04:00−1ссз497211 0.0 1012224
07:00+1ссз510605 0.0 1014475
10:00+5ссз675089 0.1 10141654
13:00+8с7841100 0.2 10132479
16:00+6с81163100 0.3 10141529
19:00+5с61291100 2.1 1016996
22:00+4с248761 1.6 1017119
21 мая, пт
пт2101:00+2сз36905 1.6 101898
04:000сз49810 0.0 1019163
07:00+3ссз46741 0.0 1021182
10:00+9сз4455100 0.0 1022578
13:00+12зсз3540100 0.0 10211849
16:00+13з5639100 0.0 10201907
19:00+12з5948100 0.0 1019837
22:00+7юз2877100 0.9 1019264
22 мая, сб
сб2201:00+6ююз71591100 8.6 1014860
04:00+7юз61293100 4.4 1011677
07:00+10зюз41096100 6.8 1010442
10:00+12зсз51095100 0.1 1010661
13:00+13сз51089100 0.2 1012765
16:00+13ссз588296 0.1 1015856
19:00+12с5779100 0.2 1018921
22:00+9с358567 0.0 1020110